Weather History for Ann Arbor, MI

Change the Weather History Date:

Tuesday, December 6, 2011

  Actual Average Record
Temperature  
Mean Temperature 32 °F -  
Max Temperature 33 °F 39 °F 66 °F (1998)
Min Temperature 30 °F 24 °F 1 °F (2007)
Degree Days  
Heating Degree Days 34    
Moisture  
Dew Point 28 °F    
Average Humidity 86    
Maximum Humidity 93    
Minimum Humidity 80    
Precipitation  
Precipitation 0.00 in - - ()
Sea Level Pressure  
Sea Level Pressure 30.16 in    
Wind  
Wind Speed 8 mph (NNW)    
Max Wind Speed 13 mph    
Max Gust Speed 25 mph    
Visibility 10 miles    
Events Snow    
Averages and records for this station are not official NWS values.
T = Trace of Precipitation, MM = Missing Value Source: NWS Daily Summary

Daily Weather History Graph

Daily Weather History Graph

Search for Another Location

Airport:

Trip Planner

Search our weather history database for the weather conditions in past years. The results will help you decide how hot, cold, wet, or windy it might be!

Date:

Astronomy

Dec. 06, 2011 Rise Set
Actual Time 7:48 AM EST 5:02 PM EST
Civil Twilight 7:17 AM EST 5:34 PM EST
Nautical Twilight 6:42 AM EST 6:09 PM EST
Astronomical Twilight 6:08 AM EST 6:43 PM EST
Moon 2:31 PM EST (12/6) 4:03 AM EST (12/6)
Length of Visible Light 10h 17m
Length of Day
9h 13m
Waxing Gibbous, 86% of the Moon is Illuminated
Dec 6
Waxing Gibbous
Dec 10
Full
Dec 17
Last Quarter
Dec 24
New
Jan 1
First Quarter

Hourly Weather History & Observations

Time (EST) Temp. Windchill Dew Point Humidity Pressure Visibility Wind Dir Wind Speed Gust Speed Precip Events Conditions
12:26 AM 32.0 °F 25.6 °F 28.4 °F 87% 30.20 in 10.0 mi North 6.9 mph - N/A   Mostly Cloudy
12:53 AM 33.1 °F 24.4 °F 28.0 °F 82% 30.21 in 10.0 mi North 11.5 mph - N/A   Mostly Cloudy
1:42 AM 32.0 °F 24.8 °F 28.4 °F 87% 30.20 in 10.0 mi North 8.1 mph - N/A   Overcast
1:53 AM 32.0 °F 23.6 °F 27.0 °F 82% 30.22 in 10.0 mi North 10.4 mph - N/A   Overcast
2:51 AM 32.0 °F 24.2 °F 26.6 °F 80% 30.18 in 10.0 mi NNW 9.2 mph 25.3 mph N/A   Overcast
2:53 AM 32.0 °F 24.8 °F 27.0 °F 82% 30.21 in 10.0 mi NNW 8.1 mph 21.9 mph N/A   Overcast
3:10 AM 32.0 °F - 26.6 °F 80% 30.19 in 10.0 mi North - - N/A   Squalls
3:53 AM 32.0 °F 23.6 °F 28.0 °F 85% 30.22 in 10.0 mi North 10.4 mph - N/A   Overcast
4:53 AM 32.0 °F 26.4 °F 27.0 °F 82% 30.21 in 10.0 mi North 5.8 mph - N/A   Overcast
5:53 AM 30.9 °F 21.2 °F 26.1 °F 82% 30.21 in 10.0 mi North 12.7 mph - N/A   Overcast
6:53 AM 30.9 °F 22.8 °F 27.0 °F 85% 30.22 in 10.0 mi North 9.2 mph - N/A   Overcast
7:53 AM 30.0 °F 22.4 °F 26.1 °F 85% 30.23 in 10.0 mi North 8.1 mph - N/A   Overcast
8:53 AM 30.0 °F 21.7 °F 26.1 °F 85% 30.23 in 10.0 mi North 9.2 mph - N/A   Overcast
9:29 AM 30.2 °F 22.6 °F 26.6 °F 86% 30.21 in 10.0 mi NNW 8.1 mph - N/A   Overcast
9:53 AM 30.9 °F 21.7 °F 27.0 °F 85% 30.23 in 10.0 mi North 11.5 mph - N/A   Overcast
10:53 AM 30.9 °F 22.2 °F 27.0 °F 85% 30.23 in 10.0 mi North 10.4 mph 18.4 mph N/A   Overcast
11:53 AM 32.0 °F 24.2 °F 28.0 °F 85% 30.21 in 10.0 mi North 9.2 mph - N/A   Overcast
12:53 PM 33.1 °F 26.1 °F 28.0 °F 82% 30.19 in 10.0 mi North 8.1 mph - N/A   Overcast
2:53 PM 33.1 °F 25.5 °F 28.9 °F 85% 30.15 in 10.0 mi NNW 9.2 mph - N/A   Overcast
3:25 PM 33.8 °F 27.0 °F 28.4 °F 81% 30.12 in 10.0 mi NNW 8.1 mph - N/A   Overcast
3:53 PM 33.1 °F 25.5 °F 28.0 °F 82% 30.15 in 10.0 mi NNW 9.2 mph - N/A   Overcast
4:01 PM 33.8 °F 25.8 °F 28.4 °F 81% 30.12 in 10.0 mi North 10.4 mph - N/A   Overcast
4:25 PM 33.8 °F 26.4 °F 28.4 °F 81% 30.11 in 10.0 mi North 9.2 mph - N/A   Overcast
4:53 PM 33.1 °F 26.9 °F 28.0 °F 82% 30.14 in 10.0 mi North 6.9 mph - N/A   Overcast
5:53 PM 32.0 °F 23.6 °F 28.0 °F 85% 30.14 in 10.0 mi NNW 10.4 mph - N/A   Overcast
6:53 PM 32.0 °F 24.8 °F 28.0 °F 85% 30.14 in 10.0 mi North 8.1 mph - N/A   Overcast
7:25 PM 32.0 °F 24.8 °F 28.4 °F 87% 30.12 in 6.0 mi NNW 8.1 mph - 0.00 in Snow Light Snow
7:53 PM 32.0 °F 25.6 °F 28.9 °F 88% 30.15 in 5.0 mi NNW 6.9 mph - 0.00 in Snow Light Snow
8:50 PM 30.2 °F 24.3 °F 28.4 °F 93% 30.10 in 8.0 mi NNW 5.8 mph - 0.00 in Snow Light Snow
8:53 PM 30.9 °F 26.2 °F 28.9 °F 92% 30.13 in 8.0 mi NNW 4.6 mph - 0.00 in   Overcast
9:21 PM 30.2 °F 24.3 °F 28.4 °F 93% 30.09 in 10.0 mi NNW 5.8 mph - N/A   Overcast
9:29 PM 32.0 °F 26.4 °F 28.4 °F 87% 30.08 in 10.0 mi North 5.8 mph - N/A   Overcast
9:51 PM 30.2 °F 22.6 °F 28.4 °F 93% 30.08 in 10.0 mi NNW 8.1 mph - N/A   Overcast
9:53 PM 32.0 °F 25.6 °F 28.9 °F 88% 30.11 in 10.0 mi North 6.9 mph - N/A   Overcast
10:53 PM 30.9 °F 26.2 °F 28.9 °F 92% 30.11 in 10.0 mi NW 4.6 mph - N/A   Overcast
11:06 PM 30.2 °F 24.3 °F 28.4 °F 93% 30.08 in 10.0 mi NNW 5.8 mph - N/A   Overcast
11:31 PM 30.2 °F 25.4 °F 28.4 °F 93% 30.09 in 10.0 mi NW 4.6 mph - N/A   Overcast
11:53 PM 30.9 °F 24.3 °F 28.9 °F 92% 30.12 in 10.0 mi NNW 6.9 mph - N/A   Overcast